Regional Weather Roundup
Issued by NWS Portland, ME

Home | Current Version | Previous Version | Text Only | Print | Product List | Glossary On
Versions: 1 2 3 4 5 6 7 8 9 10 11 12 13 14 15 16 17 18 19 20 21 22 23 24 25 26 27 28 29 30 31 32 33 34 35 36 37 38 39 40 41 42 43 44 45 46 47 48 49 50
000
ASUS41 KGYX 130310
RWRGYX
WEATHER ROUNDUP FOR MAINE AND NEW HAMPSHIRE
NATIONAL WEATHER SERVICE GRAY ME
1000 PM EST FRI FEB 12 2016

MEZ002-005-006-010-012-015-018-020-021-024-026-027-029-130400-
MAINE

CITY           SKY/WX    TMP DP  RH WIND       PRES   REMARKS
PORTLAND       CLOUDY    19   2  47 SW3       29.93F
SANFORD        MOCLDY    12   7  79 CALM      29.92F
BAR HARBOR     PTCLDY     9   3  78 N3        29.97F
WISCASSET      PTCLDY    14   8  77 CALM      29.95F
ROCKLAND       CLOUDY    11   5  77 CALM      29.94F
FRYEBURG       CLEAR      2  -4  76 CALM      29.89F
LEWISTONAUBURN CLEAR      5  -4  66 S3        29.89F
AUGUSTA        CLEAR     10   0  63 CALM      29.92F
WATERVILLE     CLEAR      3  -5  69 CALM      29.89F
BANGOR         CLOUDY     3  -6  66 CALM      29.95F
GREENVILLE       N/A      3  -8  60 SE5       29.78F
MILLINOCKET    CLEAR     -6 -12  75 CALM      29.94F
HOULTON        CLEAR    -16 -21  78 S5        29.93F
PRESQUE ISLE   CLEAR    -15 -19  82 CALM      29.93F
FRENCHVILLE    CLEAR      0  -8  69 SE3       29.86S
CARIBOU        CLEAR     -8 -12  83 NE3       29.90F FOG
$$

NHZ002-005-008-009-011-012-014-130400-
NEW HAMPSHIRE

CITY           SKY/WX    TMP DP  RH WIND       PRES   REMARKS
PORTSMOUTH     CLOUDY    18   4  53 S2        29.92F
ROCHESTER      CLOUDY    16   3  56 CALM      29.90F
NASHUA         CLOUDY    16   1  53 CALM      29.91F
MANCHESTER     CLOUDY    20   2  45 S6        29.89F
CONCORD        PTCLDY    16   2  54 SE3       29.90F
LACONIA        CLEAR     10   0  61 CALM      29.88F
PLYMOUTH       FAIR       5   2  89 CALM      29.88F
BERLIN         CLEAR      1  -5  75 CALM      29.80F
WHITEFIELD     PTCLDY     0  -5  79 CALM      29.80F
JAFFREY        PTCLDY     8   0  69 SW3       29.83F
KEENE          CLEAR     10   0  61 CALM      29.88F
LEBANON        CLEAR     10   2  69 S5        29.84F
MT WASHINGTON  NOT AVBL
$$

VTZ005-007-008-130400-
VERMONT

CITY           SKY/WX    TMP DP  RH WIND       PRES   REMARKS
ST JOHNSBURY     N/A      8   0  69 MISG      29.81F
MONTPELIER     MOCLDY    12  -1  56 S5        29.81F
BURLINGTON     CLOUDY    19   2  47 S13       29.80F WCI   6
$$

MAZ007-012-024-CTZ003-RIZ002-NYZ038-NYZ072-130400-
SOUTHERN NEW ENGLAND AND NY

CITY           SKY/WX    TMP DP  RH WIND       PRES   REMARKS
BOSTON         CLOUDY    22   6  50 SW9G18    29.94F
WORCESTER      CLOUDY    16   5  62 SW6       29.84F
NANTUCKET      LGT SNOW  25  18  74 NE3       29.94F
PROVIDENCE     CLOUDY    21   8  57 W6        29.94F
HARTFORD       MOCLDY    20   7  57 SW5       29.92F
ALBANY         MOCLDY    19   4  51 S5        29.89S
NEW YORK CITY  CLOUDY    24   4  42 W13       29.96F WCI  12
$$

ANZ081-ANZ082-ANZ150-NHZ014-MEZ023>029-130400-
COASTAL MARINE OBSERVATIONS

STATION/POSITION TIME  TEMP    WIND        PRES    WAVE
                       AIR SEA DIR/SP/G            HT/PER
                 (UTC) (F)     (DEG/KT/KT) (MB)    (FT/S)
MOUNT DESERT ROC 0300   22     260/  5/  6 1014.5F
MATINICUS ROCK   0300          180/ 12/ 13 1013.7F
ISLE OF SHOALS   0300   23     240/ 14/ 16 1012.7F
JEFFREYS LEDGE   0204      43                N/A     3/13
CASHES LEDGE BUO 0250   24 42   40/  2/  6 1013.9F   2/ 9
GEORGES BANK BUO 0250   30 44              1014.9F   7/ 9
$$

.............KEY..............
   WCI - WIND CHILL
   TC  - TEMPERATURE IN CELSIUS
   VSB - VISIBILITY IN MILES
   HX  - HEAT INDEX
   FAIR- INDICATES FEW OR NO CLOUDS BELOW 12,000 FT, WITH NO
         SIGNIFICANT WEATHER AND/OR OBSTRUCTIONS TO VISIBILITY.





USA.gov is the U.S. government's official web portal to all federal, state and local government web resources and services.